Location: Newark
(54.2500°N, 9.1833°E)
Time: 01:57:57
(UTC+00:00)

Vanguard 1 - All Passes

Search period start: 09 December 2019 00:00
Search period end: 19 December 2019 00:00
Orbit: 652 x 3831 km, 34.3° (Epoch: 07 December)

Date Brightness Start Highest point End Pass type
(mag) Time Alt. Az. Time Alt. Az. Time Alt. Az.
09 Dec - 02:46:40 10° SSW 03:03:28 26° SSE 03:17:31 10° ESE visible
09 Dec - 05:06:53 10° SW 05:25:52 37° S 05:39:14 10° ESE visible
09 Dec - 07:31:28 10° WSW 07:47:31 33° SSW 07:57:58 10° SE daylight
09 Dec - 09:59:21 10° WSW 10:06:48 15° SW 10:12:34 10° SSW daylight
10 Dec - 00:52:58 10° SSE 01:02:31 14° SE 01:11:40 10° ESE visible
10 Dec - 03:05:54 10° SSW 03:24:02 31° SSE 03:38:53 10° ESE visible
10 Dec - 05:27:23 10° WSW 05:46:35 38° S 05:59:56 10° ESE visible
10 Dec - 07:52:38 10° WSW 08:07:57 30° SSW 08:18:05 10° SSE daylight
10 Dec - 10:22:44 10° WSW 10:26:44 12° SW 10:30:13 10° SW daylight
11 Dec - 01:09:29 10° S 01:22:42 19° SE 01:35:13 10° ESE visible
11 Dec - 03:25:35 10° SW 03:44:39 34° SSE 04:00:02 10° ESE visible
11 Dec - 05:48:05 10° WSW 06:07:16 38° S 06:20:30 10° SE visible
11 Dec - 08:13:58 10° W 08:28:16 27° SSW 08:37:59 10° SSE daylight
12 Dec - 01:27:28 10° S 01:42:59 24° SE 01:57:32 10° E visible
12 Dec - 03:45:35 10° SW 04:05:20 37° SSE 04:21:00 10° ESE visible
12 Dec - 06:08:56 10° WSW 06:27:54 38° SSW 06:40:58 10° SE visible
12 Dec - 08:35:34 10° W 08:48:27 23° SW 08:57:35 10° S daylight
13 Dec - 01:46:15 10° SSW 02:03:21 28° SSE 02:19:16 10° E visible
13 Dec - 04:05:52 10° SW 04:26:02 39° S 04:41:51 10° ESE visible
13 Dec - 06:29:57 10° WSW 06:48:28 36° SSW 07:01:16 10° SE visible
13 Dec - 08:57:30 10° W 09:08:31 19° SW 09:16:44 10° S daylight
13 Dec - 23:52:52 10° SSE 00:02:37 15° SE 00:12:32 10° ESE visible
14 Dec - 02:05:35 10° SSW 02:23:48 32° SSE 02:40:39 10° E visible
14 Dec - 04:26:22 10° WSW 04:46:45 41° S 05:02:34 10° ESE visible
14 Dec - 06:51:05 10° WSW 07:08:56 34° SSW 07:21:24 10° SSE visible
14 Dec - 09:20:08 10° WSW 09:28:27 15° SW 09:35:07 10° SSW daylight
15 Dec - 00:09:41 10° S 00:22:37 19° SE 00:35:59 10° E visible
15 Dec - 02:25:18 10° SW 02:44:22 36° SSE 03:01:49 10° ESE visible
15 Dec - 04:47:02 10° WSW 05:07:27 41° S 05:23:10 10° ESE visible
15 Dec - 07:12:23 10° W 07:29:17 30° SSW 07:41:19 10° SSE daylight
15 Dec - 09:44:50 10° WSW 09:48:14 11° SW 09:51:21 10° SW daylight
16 Dec - 00:27:51 10° S 00:42:46 24° SE 00:58:19 10° E visible
16 Dec - 02:45:20 10° SW 03:05:00 39° SSE 03:22:49 10° ESE visible
16 Dec - 05:07:51 10° WSW 05:28:08 40° S 05:43:39 10° SE visible
16 Dec - 07:33:53 10° W 07:49:31 26° SW 08:00:57 10° SSE daylight
17 Dec - 00:46:45 10° SSW 01:03:01 28° SE 01:20:05 10° E visible
17 Dec - 03:05:36 10° SW 03:25:41 41° S 03:43:42 10° ESE visible
17 Dec - 05:28:49 10° WSW 05:48:44 39° SSW 06:03:58 10° SE visible
17 Dec - 07:55:43 10° W 08:09:37 22° SW 08:20:10 10° S daylight
17 Dec - 22:54:03 10° SSE 23:02:44 14° SE 23:12:06 10° ESE visible
18 Dec - 01:06:09 10° SSW 01:23:23 33° SSE 01:41:31 10° E visible
18 Dec - 03:26:05 10° WSW 03:46:24 42° S 04:04:28 10° ESE visible
18 Dec - 05:49:55 10° WSW 06:09:15 36° SSW 06:24:07 10° SE visible
18 Dec - 08:18:04 10° W 08:29:34 18° SW 08:38:46 10° SSW daylight
18 Dec - 23:10:56 10° SSE 23:22:37 19° SE 23:35:42 10° E visible
